Find Starlink 32356

NORAD ID: 60921 Int'l Des: 2024-154 Owner: SPXS Country: US Constellation: starlink operational
LEOCIRCULAR

当前视图

正在加载3D地球...

About Starlink 32356

Starlink 32356 (NORAD 60921) is a starlink constellation satellite (v2 mini) launched Aug 31, 2024 by SPXS of US. It operates in LEO, CIRCULAR orbit with a mass of 730.00 kg.

即将过境

Passes for default location (London). Set your location on the main map for personalized predictions.

高度历史

Loading altitude history...

两行轨道根数

1 60921U 24154U 26206.42805594 .00007817 00000-0 26369-3 0 9999
2 60921 53.1570 3.3293 0001040 83.5647 276.5473 15.31662481107446
Epoch: Jul 25, 2026 • Age: 15 hours

当前状态

高度 471.8 km
远地点 / 近地点 N/A
速度 7.63 km/s
星下点 27.60°N, 161.15°W
发射日期 Aug 31, 2024
运行时间 1.8 years
类型 internet

技术详情

分类 Payload
质量 730.00 kg
干质量 700.00 kg
总质量 730.00 kg
长度 0.30 m
直径 4.10 m
跨度 29.00 m
形状 Box + pan
制造商 SPXS
平台类型 Starlink V2M
阶段状态 In Orbit
所有者/国家 SPXS/US

Most Searched